SCP
2 2 2 3 3 3 3 4 6 7 5 3 3 2 2 2 2 2 2 1 1 1 1 1 1 1 1 1 1 1 1 1 1 1 1 1 1 1 1 1 1 1 1
2 2 2 2 3 3 3 3 5 6 5 4 3 2 2 2 2 2 2 1 1 1 1 1 1 1 1 1 1 1 1 1 1 1 1 1 1 1 1 1 1 1 1
2 2 2 2 3 4 4 3 4 5 5 4 4 3 2 2 2 2 2 2 1 1 1 1 1 2 1 1 1 1 1 1 1 1 1 1 1 1 1 1 1 1 1
2 2 2 2 3 4 4 4 4 4 4 4 4 4 3 2 2 2 2 2 2 1 1 1 2 2 2 2 1 1 1 1 1 1 1 1 1 1 1 1 1 1 1
2 2 2 2 3 3 4 4 4 3 4 4 4 4 4 3 3 2 2 2 2 2 1 1 1 2 2 2 1 1 1 1 1 1 1 1 1 1 1 1 1 1 1
2 2 2 2 3 3 4 4 4 4 3 3 4 4 4 3 3 2 2 2 2 2 2 2 1 1 2 2 1 1 1 1 1 1 1 1 1 1 1 1 1 1 1
2 2 2 2 2 3 3 4 4 4 3 3 4 3 3 3 2 2 2 2 1 1 2 2 2 1 2 2 1 1 1 1 1 1 1 1 1 1 1 1 1 1 1
2 2 2 2 2 3 3 3 4 4 3 3 3 4 3 3 2 2 2 2 1 1 1 2 2 2 2 1 1 1 1 1 1 1 1 1 1 1 1 1 1 1 1
2 2 2 2 2 2 3 3 3 3 3 3 3 4 3 3 3 2 2 2 1 1 1 2 2 2 2 1 1 1 1 1 1 1 1 1 1 1 1 1 1 1 1
2 2 2 2 2 3 3 3 3 3 3 2 3 3 3 3 3 3 2 2 1 1 1 1 2 2 2 1 1 1 2 1 1 1 1 1 1 1 1 1 1 1 1
2 2 2 3 3 3 4 4 4 3 3 2 2 3 3 3 3 3 2 2 2 1 1 1 1 2 2 1 1 1 1 1 1 1 1 1 1 1 1 1 1 1 1
2 2 3 3 3 3 4 4 4 3 2 2 2 2 2 3 3 3 2 2 2 1 1 1 1 1 1 1 1 1 1 1 1 1 1 1 1 1 1 1 1 1 1
2 2 3 3 4 4 3 3 3 2 1 1 1 1 2 2 2 2 2 2 2 2 1 1 1 2 2 1 1 1 1 1 1 1 1 1 1 1 1 1 1 1 1
3 3 3 4 4 4 3 3 2 2 1 1 1 1 1 2 2 2 2 2 2 2 2 2 2 2 2 2 1 1 1 1 1 1 1 1 1 1 1 1 1 1 1
3 3 3 4 5 5 4 3 3 2 2 1 1 2 2 2 2 2 2 2 2 2 2 2 2 2 2 2 2 1 1 1 1 1 1 1 2 2 1 1 1 1 1
4 4 4 4 5 6 5 4 3 3 2 2 2 2 2 2 2 2 2 2 2 2 3 3 3 2 2 2 2 2 2 2 1 1 1 1 2 2 2 2 1 2 2
4 4 5 5 5 6 6 5 4 3 3 2 2 2 3 3 3 2 2 2 2 2 3 3 3 3 3 3 3 2 2 2 2 2 1 1 1 2 2 2 2 2 2
4 4 4 4 4 5 5 4 4 3 3 2 2 2 3 4 3 3 2 2 1 2 3 3 4 3 3 3 3 3 3 3 2 2 2 1 1 1 2 2 2 2 2
4 3 4 4 4 4 4 3 3 3 2 2 2 2 3 3 3 3 2 1 1 1 3 4 4 4 4 4 3 3 3 3 3 2 2 1 1 1 2 2 2 2 2
3 3 3 3 3 4 4 3 3 2 2 2 2 2 2 2 2 2 2 1 1 1 2 3 4 4 4 4 4 3 3 3 3 2 2 1 1 1 2 2 2 2 2
3 3 3 3 4 4 4 4 4 3 2 2 1 1 1 1 2 2 2 1 1 1 1 1 3 3 4 4 4 3 3 2 2 1 1 1 1 1 2 2 2 2 1
3 3 3 3 3 4 5 5 5 4 3 2 2 1 1 1 1 2 2 1 1 1 1 1 1 2 2 2 2 2 2 1 1 1 1 1 1 1 1 2 2 2 1
3 3 3 3 3 4 5 6 6 5 4 3 2 2 1 1 1 1 1 1 1 1 1 1 1 1 1 1 1 1 1 1 0 0 0 0 0 1 1 2 2 2 1
3 2 2 3 3 4 5 7 7 6 5 4 3 2 2 2 2 2 1 1 1 1 1 1 1 1 1 1 1 1 1 1 0 0 0 0 0 1 1 2 2 2 2
3 3 3 3 4 4 4 5 6 5 4 4 3 3 3 2 2 2 2 1 1 1 1 1 1 1 1 1 1 1 1 0 0 0 0 0 0 1 1 2 2 2 2
4 3 3 3 3 3 3 4 5 4 4 4 4 4 4 3 2 2 2 1 1 1 1 1 1 1 1 1 1 1 1 1 0 0 0 0 0 1 1 2 2 2 2
Wind_Speed
5 6 10 10 10 10 10 10 10 11 11 12 12 12 12 12 11 11 11 11 11 11 11 11 11 11 11 10 10 10 9 9 9 10 11 11 12 12 12 11 10 7 10
8 7 11 11 10 10 10 10 10 11 11 11 12 12 11 11 11 10 11 10 10 10 10 10 10 10 9 9 9 9 9 8 8 9 10 11 12 12 12 12 10 6 10
9 7 10 12 11 11 11 11 10 10 11 11 11 11 11 11 10 10 10 10 9 9 9 9 9 9 9 8 8 8 8 8 7 8 8 6 7 11 12 12 11 10 10
10 7 8 12 11 11 11 11 11 10 11 11 11 11 11 11 10 9 9 9 9 9 9 9 8 8 8 7 7 7 7 7 7 7 4 4 5 10 11 12 11 10 10
8 7 8 13 11 11 11 11 11 11 10 10 11 11 11 10 10 9 9 9 9 8 9 9 8 7 7 7 7 6 6 7 7 5 3 4 4 8 11 12 11 10 10
8 6 8 13 11 11 11 11 11 11 10 9 10 10 10 10 9 8 8 8 8 8 8 7 7 6 6 6 6 6 6 7 5 3 3 3 4 8 10 11 11 10 9
8 6 7 12 12 11 11 10 10 10 10 9 9 9 9 9 8 8 7 7 7 7 7 6 6 6 6 6 6 6 6 7 4 4 3 3 4 8 10 10 10 9 9
8 6 5 11 12 11 10 10 10 10 9 9 9 9 8 8 8 7 6 6 6 6 5 5 5 5 5 5 5 5 6 6 4 3 3 3 5 8 9 9 9 8 8
7 6 4 5 8 10 10 9 9 9 9 9 8 8 8 8 7 7 6 6 5 5 5 5 5 4 4 3 3 4 5 6 4 2 3 2 5 7 9 9 9 9 8
5 5 4 4 4 4 6 9 9 8 8 8 8 8 7 7 6 6 5 5 5 5 4 4 4 3 3 3 3 4 5 4 3 3 2 2 6 7 8 8 8 8 8
6 4 4 4 4 4 4 6 7 7 6 6 6 7 6 2 2 3 4 4 4 4 4 4 4 4 4 3 3 3 4 2 3 2 2 3 6 7 7 8 8 8 8
8 7 5 5 4 4 4 3 3 3 3 3 2 3 2 2 1 2 3 4 4 4 4 4 4 4 3 2 2 2 1 2 2 2 2 4 5 6 6 7 7 7 8
8 7 6 6 5 4 3 3 2 2 2 2 2 3 2 2 1 1 1 1 1 2 2 2 2 2 2 1 1 1 2 2 1 2 2 4 4 5 6 6 6 6 6
7 7 6 6 5 5 3 3 3 2 2 2 2 3 2 1 1 1 1 1 1 1 1 1 1 1 2 2 2 1 2 2 2 1 2 5 5 5 5 6 6 6 5
8 7 7 7 6 5 4 3 3 2 2 2 2 2 3 2 2 1 1 1 1 1 1 1 1 1 1 1 1 2 2 2 2 2 1 4 5 5 5 6 6 6 6
9 8 7 7 6 5 4 3 3 3 2 2 2 3 3 2 2 1 1 1 1 1 1 1 1 1 1 1 1 1 1 2 2 2 1 2 4 4 5 6 6 6 6
8 8 8 8 6 6 5 4 3 3 3 3 2 3 3 3 2 2 1 1 1 1 1 1 1 1 1 1 1 1 1 1 1 2 2 1 2 4 5 5 6 6 6
7 7 7 7 7 6 5 4 3 2 3 2 2 2 3 3 3 2 1 1 1 1 1 1 1 1 1 1 0 0 0 1 1 2 2 2 2 2 4 5 6 6 7
7 7 7 7 7 6 5 3 3 2 2 2 2 2 2 3 3 3 2 1 2 1 1 1 1 1 1 0 0 0 0 0 1 1 2 2 2 2 2 3 5 6 7
6 6 7 6 6 5 4 3 2 2 2 2 2 2 3 2 3 3 2 2 2 2 1 1 1 1 1 1 0 1 1 1 0 1 1 1 1 2 2 2 2 4 7
5 6 6 6 5 5 4 4 3 3 2 2 2 2 3 3 3 3 2 2 2 2 2 2 2 2 1 1 2 1 2 1 1 1 1 1 1 2 2 2 2 2 3
5 5 6 6 6 6 4 4 3 3 2 2 1 2 2 3 3 3 3 3 3 2 2 2 2 2 1 1 2 1 2 2 2 1 1 2 2 1 2 3 3 3 3
5 5 5 5 5 5 4 3 3 2 1 1 1 1 2 2 3 3 3 3 3 3 3 3 3 3 2 1 1 2 2 2 2 2 1 1 1 1 2 2 4 4 4
5 5 4 5 5 5 5 5 5 4 4 3 2 2 1 2 2 2 2 3 3 3 3 3 3 3 3 2 1 1 1 2 1 1 2 1 1 2 2 2 3 3 3
5 5 5 5 4 4 5 6 5 4 3 2 2 2 2 1 2 2 2 2 2 2 3 3 3 3 3 3 3 2 2 1 1 2 2 2 2 2 2 2 2 2 2
4 4 4 5 4 4 5 5 5 5 4 4 3 2 2 1 1 2 2 2 2 2 2 3 3 4 3 3 2 2 3 2 3 3 3 2 2 2 2 2 2 2 2
Wind_Direction
164 163 158 149 142 134 126 121 120 123 123 123 124 126 125 127 129 130 132 133 134 135 134 133 132 130 131 133 132 132 132 132 137 142 143 142 141 141 139 139 135 129 131
150 157 157 150 145 138 132 128 124 124 125 125 125 125 125 126 126 128 131 133 134 135 134 134 135 137 134 134 138 139 138 137 140 142 145 147 146 145 143 144 145 138 137
143 153 155 153 148 142 137 134 131 128 129 127 126 125 125 123 121 123 128 129 131 133 135 135 136 137 135 136 138 139 138 141 142 143 143 140 147 150 149 148 150 146 141
145 149 155 155 151 145 141 138 136 134 133 131 130 127 126 127 122 119 123 126 127 126 129 134 134 135 133 134 137 138 137 139 140 142 134 140 151 155 153 152 153 149 146
144 149 162 157 154 148 144 141 140 136 133 133 133 130 129 127 122 120 120 122 124 125 128 133 136 137 135 136 139 143 144 142 135 127 123 139 147 156 155 154 153 152 150
145 149 165 158 157 151 148 146 143 139 135 133 132 133 131 126 122 121 120 123 122 122 124 128 136 139 138 137 139 146 146 139 131 118 123 138 145 158 157 156 155 156 154
148 154 167 160 159 154 150 148 145 142 140 137 135 134 132 127 126 124 123 123 122 122 124 128 132 136 139 140 142 145 148 143 123 121 129 141 157 160 158 158 155 157 159
151 155 163 165 161 156 151 146 146 145 143 141 140 137 131 129 131 130 128 126 125 123 121 121 120 124 128 131 140 147 150 148 132 131 134 149 164 167 165 161 157 159 162
147 152 159 161 163 160 155 150 148 148 144 140 140 138 135 135 136 140 141 139 136 130 119 114 108 109 119 120 128 146 153 152 130 136 152 158 171 172 167 165 162 163 163
146 155 155 152 151 153 156 155 150 150 147 142 140 140 138 136 138 140 142 149 145 136 125 115 106 105 103 108 110 141 148 145 129 135 143 167 173 173 174 171 165 165 165
164 165 157 154 154 153 155 159 153 149 147 145 143 141 133 116 122 136 148 155 156 150 142 129 119 108 94 88 88 137 137 133 145 144 151 171 179 180 177 172 166 168 171
182 182 171 164 163 157 162 149 138 136 132 121 112 116 103 93 123 133 152 152 154 146 135 123 117 104 89 76 74 104 111 141 150 158 170 167 167 168 168 162 164 172 174
181 182 179 172 166 160 155 144 135 132 127 124 122 113 106 96 87 74 72 89 79 92 76 80 84 83 95 104 93 85 113 123 141 158 161 165 164 162 163 163 166 174 178
173 182 178 173 168 167 155 149 145 146 146 149 149 140 133 128 129 114 106 79 70 72 76 72 75 90 111 117 124 112 121 136 149 153 169 171 168 174 176 174 176 179 183
179 181 179 173 172 167 156 160 155 160 159 159 157 160 155 153 166 157 133 111 99 88 92 91 94 110 110 112 140 147 155 160 159 158 174 177 175 183 190 191 190 194 197
182 181 175 175 174 163 165 169 165 162 158 159 172 173 167 161 163 163 147 138 146 127 140 147 149 130 131 113 124 133 148 161 167 170 178 190 188 191 199 203 202 204 208
178 176 173 173 170 169 172 173 166 163 164 168 176 173 171 167 164 160 154 161 178 151 138 120 85 80 97 100 79 90 126 161 177 187 194 212 223 217 212 212 212 213 218
165 167 174 172 169 172 171 168 164 161 162 165 169 169 175 172 163 156 162 180 156 134 137 135 112 84 68 79 82 5 121 158 204 210 208 214 228 236 227 223 223 221 220
168 165 167 164 169 172 167 158 155 154 160 165 166 168 176 175 168 163 170 165 148 135 145 170 129 134 139 183 249 340 9 223 239 232 217 214 223 232 237 237 236 231 227
162 162 165 166 164 157 152 138 135 141 156 162 175 177 172 174 171 166 162 156 151 145 164 170 145 136 144 159 132 25 1 329 303 256 240 229 226 229 231 241 245 245 239
155 159 165 166 162 155 159 166 168 183 182 181 192 181 176 175 172 171 174 162 163 173 189 179 154 147 143 111 90 23 3 10 350 274 267 255 241 234 226 229 235 242 248
160 168 170 170 168 173 177 170 167 166 173 176 176 181 183 179 179 183 182 181 181 182 182 175 154 148 151 124 128 98 354 341 333 285 254 240 253 253 242 234 226 226 235
166 171 178 175 174 173 161 138 121 105 92 132 166 185 192 187 190 188 187 181 188 190 193 189 177 172 174 165 140 144 156 234 307 323 306 278 284 266 259 252 241 235 230
178 168 167 168 168 164 158 160 162 168 179 192 186 182 177 178 187 183 179 183 191 193 194 197 185 181 167 178 173 162 169 165 173 307 319 304 289 270 270 270 260 249 236
172 167 163 160 164 162 162 167 165 171 175 161 149 160 173 181 196 196 183 181 189 195 198 192 182 184 183 180 174 163 164 160 173 187 265 300 312 280 270 268 265 256 246
160 159 151 159 168 168 165 169 169 172 166 153 157 170 186 195 209 210 194 192 194 194 196 199 191 185 190 183 181 176 175 176 189 185 216 253 283 294 288 266 255 252 245